Location: Earls Croome
(52.0667°N, 2.2000°W)
Time: 20:42:37
(UTC+00:00)

FALCON 9 DEB - Pass Details

Date: 17 November 2019
Orbit: 430 x 444 km, 53.0° (Epoch: 08 December)

Event Time Altitude Azimuth Distance (km) Brightness Sun altitude
Exits shadow 06:11:42 20° 280° (W) 1,047 4.4 -12.1°
Maximum altitude 06:13:55 74° 3° (N) 453 3.1 -11.8°
Drops below altitude 10° 06:17:21 10° 89° (E) 1,534 7.2 -11.3°
Sets 06:19:28 0° 91° (E) 2,401 8.6 -11.0°
